Location: Dehesa de la Cepeda
(40.6574°N, 4.3013°W)
Time: 21:19:42
(UTC+00:00)

Vanguard 2 Rocket - Pass Details

Date: 11 August 2021
Orbit: 556 x 3324 km, 32.9° (Epoch: 19 September)

Event Time Altitude Azimuth Distance (km) Brightness Sun altitude
Rises 09:09:54 0° 260° (W) 2,920 9.1 41.2°
Reaches altitude 10° 09:13:43 10° 226° (SW) 1,845 8.4 41.9°
Maximum altitude 09:15:09 12° 204° (SSW) 1,720 8.4 42.2°
Drops below altitude 10° 09:16:35 10° 183° (S) 1,826 8.8 42.4°
Sets 09:20:18 0° 148° (SSE) 2,844 10.0 43.1°
